Regional Weather Roundup
Issued by NWS

Home | Current Version | Previous Version | Graphics & Text | Print | Product List | Glossary On
Versions: 1 2 3 4 5 6 7 8 9 10 11 12 13 14 15 16 17 18 19 20 21 22 23 24 25 26 27 28 29 30 31 32 33 34 35 36 37 38 39 40 41 42 43 44 45 46 47 48 49 50
000
ASUS43 KOAX 242310
RWRNE

WEATHER ROUNDUP FOR NEBRASKA
NATIONAL WEATHER SERVICE OMAHA NE
600 PM CDT SAT JUN 24 2017

NOTES: SATELLITE DATA IS BEING USED TO AUGMENT CLOUD COVER ABOVE
       12000 FEET.
       "FAIR" INDICATES FEW OR NO CLOUDS BELOW 12,000 FEET WITH NO
       SIGNIFICANT WEATHER AND/OR OBSTRUCTIONS TO VISIBILITY.

  * THESE STATIONS DO NOT REPORT WEATHER SUCH AS RAIN...SNOW OR FOG.

NEZ001>004-019>022-054>056-250000-
NEBRASKA PANHANDLE

CITY           SKY/WX    TMP DP  RH WIND       PRES   REMARKS
SCOTTSBLUFF    MOSUNNY   75  35  23 N3        30.26S
ALLIANCE       CLOUDY    75  37  25 VRB7      30.26F
CHADRON        PTSUNNY   76  31  19 W13G24    30.24F
GORDON         FAIR      71  34  24 NW8       30.27S
KIMBALL        SUNNY     71  38  29 E7        30.30F
SIDNEY         MOSUNNY   75  34  22 CALM      30.28F
$$

NEZ057>060-069>072-079>082-250000-
SOUTHWEST NEBRASKA

CITY           SKY/WX    TMP DP  RH WIND       PRES   REMARKS
NORTH PLATTE   SUNNY     76  39  26 SW13      30.23F
IMPERIAL       CLOUDY    72  42  34 SE7       30.26F
LEXINGTON      CLOUDY    73  40  30 W8        30.22F
MCCOOK         CLOUDY    69  54  58 E3        30.23F
OGALLALA       CLOUDY    76  33  21 E3        30.25F
$$

NEZ005>010-023>029-035>040-094-250000-
NORTH CENTRAL NEBRASKA

CITY           SKY/WX    TMP DP  RH WIND       PRES   REMARKS
VALENTINE      PTSUNNY   77  28  16 NW13G23   30.21F
AINSWORTH      PTSUNNY   75  35  23 NW12G22   30.22S
BROKEN BOW     SUNNY     75  36  24 N20       30.23R
O`NEILL        MOSUNNY   76  37  24 NW18G28   30.18S
ORD            CLOUDY    73  32  22 NW16G23   30.19S
THEDFORD       LGT RAIN  71  35  27 NW12      30.26S
$$

NEZ041-046>049-061>064-073>077-083>087-250000-
SOUTH CENTRAL NEBRASKA

CITY           SKY/WX    TMP DP  RH WIND       PRES   REMARKS
GRAND ISLAND   CLOUDY    75  41  29 W15       30.19S
AURORA         CLOUDY    74  42  31 W13       30.18S
HASTINGS       CLOUDY    73  39  29 W16G22    30.22S
HEBRON         CLOUDY    75  39  26 W7        30.19F
HOLDREGE       CLOUDY    73  38  28 W10       30.22F
KEARNEY *      CLOUDY    73  39  29 W12       30.22S
YORK           CLOUDY    75  41  29 NW8       30.17S
$$

NEZ011>018-030>034-042>045-250000-
NORTHEAST NEBRASKA

CITY           SKY/WX    TMP DP  RH WIND       PRES   REMARKS
NORFOLK        CLOUDY    75  35  23 NW18G26   30.14R
ALBION         CLOUDY    76  33  20 NW13      30.17S
BLAIR          MOSUNNY   78  38  23 NW14G21   30.12S
FREMONT        PTSUNNY   79  37  22 W18G25    30.13F
TEKAMAH        MOSUNNY   80  35  19 NW17G26   30.10F
WAYNE          MOSUNNY   78  36  22 NW18G29   30.13S
$$

NEZ050>053-065>068-078-088>093-250000-
SOUTHEAST NEBRASKA

CITY           SKY/WX    TMP DP  RH WIND       PRES   REMARKS
LINCOLN        SUNNY     81  40  23 W15       30.14F
OMAHA EPPLEY   MOSUNNY   80  36  20 W21G28    30.11F
BEATRICE       MOSUNNY   77  43  29 W12G22    30.16S
FALLS CITY     SUNNY     75  43  31 NW12      30.13F
NEBRASKA CITY  SUNNY     78  46  31 W16       30.14S
PLATTSMOUTH    CLOUDY    76  39  25 W9G16     30.13S
$$

NEZ044-045-051>053-067-250000-
OMAHA AREA

CITY           SKY/WX    TMP DP  RH WIND       PRES   REMARKS
OMAHA EPPLEY   MOSUNNY   80  36  20 W21G28    30.11F
BLAIR          MOSUNNY   78  38  23 NW14G21   30.12S
FREMONT        PTSUNNY   79  37  22 W18G25    30.13F
MILLARD        MOSUNNY   80  42  25 NW14G21   30.12S
OFFUTT AFB     PTSUNNY   80  40  24 W16G26    30.11F
PLATTSMOUTH    CLOUDY    76  39  25 W9G16     30.13S
WAHOO          FAIR      78  33  19 NW14G22   30.13S
$$



USA.gov is the U.S. government's official web portal to all federal, state and local government web resources and services.